This is the latest recevied weather packets stored in our database for station/object KF0JJO. If no packets are shown the sender has not sent any weather packets the latest 10 day(s).
| Time | Temp. | Humidity | Pressure | Rain* | Wind** | Luminosity | Snow |
|---|---|---|---|---|---|---|---|
| 1777846423 | 22.22° C | 21% | 1036 hPa | 0 mm | - | 499 W/m² | - |
| 1777846118 | 22.78° C | 18% | 1036.2 hPa | 0 mm | - | 493 W/m² | - |
| 1777845815 | 23.33° C | 19% | 1036.1 hPa | 0 mm | - | 511 W/m² | - |
| 1777845512 | 23.33° C | 22% | 1036.3 hPa | 0 mm | - | 537 W/m² | - |
| 1777845209 | 23.33° C | 20% | 1036.3 hPa | 0 mm | - | 560 W/m² | - |
| 1777844907 | 23.89° C | 20% | 1036.3 hPa | 0 mm | - | 474 W/m² | - |
| 1777844604 | 23.89° C | 21% | 1036.4 hPa | 0 mm | - | 610 W/m² | - |
| 1777844301 | 23.89° C | 22% | 1036.4 hPa | 0 mm | - | 621 W/m² | - |
| 1777843999 | 23.33° C | 19% | 1036.5 hPa | 0 mm | - | 638 W/m² | - |
| 1777843696 | 23.33° C | 20% | 1036.5 hPa | 0 mm | - | 655 W/m² | - |
| 1777843394 | 23.33° C | 18% | 1036.3 hPa | 0 mm | - | 673 W/m² | - |
| 1777843091 | 23.33° C | 18% | 1036.3 hPa | 0 mm | - | 689 W/m² | - |
| 1777842787 | 23.33° C | 20% | 1036.6 hPa | 0 mm | - | 700 W/m² | - |
| 1777842487 | 23.33° C | 20% | 1036.6 hPa | 0 mm | - | 720 W/m² | - |
| 1777842185 | 22.78° C | 17% | 1036.6 hPa | 0 mm | - | 737 W/m² | - |
| 1777841880 | 23.33° C | 18% | 1036.6 hPa | 0 mm | - | 752 W/m² | - |
| 1777841577 | 23.33° C | 19% | 1036.7 hPa | 0 mm | - | 767 W/m² | - |
| 1777841273 | 23.89° C | 21% | 1036.6 hPa | 0 mm | - | 779 W/m² | - |
| 1777840971 | 23.89° C | 22% | 1036.7 hPa | 0 mm | - | 792 W/m² | - |
| 1777840668 | 23.89° C | 21% | 1036.8 hPa | 0 mm | - | 804 W/m² | - |
| 1777840366 | 23.89° C | 23% | 1036.9 hPa | 0 mm | - | 817 W/m² | - |
| 1777840062 | 23.89° C | 21% | 1037 hPa | 0 mm | - | 831 W/m² | - |
| 1777839760 | 23.33° C | 22% | 1036.9 hPa | 0 mm | - | 843 W/m² | - |
| 1777839458 | 23.33° C | 21% | 1036.8 hPa | 0 mm | - | 854 W/m² | - |
| 1777839156 | 23.33° C | 23% | 1037.1 hPa | 0 mm | - | 863 W/m² | - |
* Rain latest hour (hover to see other rain measurements)
** Current wind speed in m/s (hover to see current wind gust speed)